Time,TemperatureF,DewpointF,PressureIn,WindDirection,WindDirectionDegrees,WindSpeedMPH,WindSpeedGustMPH,Humidity,HourlyPrecipIn,Conditions,Clouds,dailyrainin,SolarRadiationWatts/m^2,SoftwareType,DateUTC
2014-01-19 00:01:00,25.0,22.0,-100.00,North,-999,0.0,4.0,89,0.00,,,0.00,0.000000,,2014-01-19 07:01:00,
2014-01-19 00:11:00,25.0,22.0,-100.00,North,-999,0.0,4.0,89,0.00,,,0.00,0.000000,,2014-01-19 07:11:00,
2014-01-19 00:21:00,25.0,22.0,-100.00,North,-999,0.0,4.0,89,0.00,,,0.00,0.000000,,2014-01-19 07:21:00,
2014-01-19 00:52:00,23.0,22.0,-100.00,North,-999,0.0,6.0,94,0.00,,,0.00,0.000000,,2014-01-19 07:52:00,
2014-01-19 01:01:00,23.0,22.0,-100.00,North,-999,0.0,6.0,94,0.00,,,0.00,0.000000,,2014-01-19 08:01:00,
2014-01-19 01:11:00,23.0,22.0,-100.00,North,-999,0.0,6.0,94,0.00,,,0.00,0.000000,,2014-01-19 08:11:00,
2014-01-19 01:22:00,23.0,22.0,-100.00,North,-999,0.0,6.0,94,0.00,,,0.00,0.000000,,2014-01-19 08:22:00,
2014-01-19 01:53:00,22.0,21.0,-100.00,North,-999,0.0,4.0,94,0.00,,,0.00,0.000000,,2014-01-19 08:53:00,
2014-01-19 02:02:00,22.0,21.0,-100.00,North,-999,0.0,4.0,94,0.00,,,0.00,0.000000,,2014-01-19 09:02:00,
2014-01-19 02:11:00,22.0,21.0,-100.00,North,-999,0.0,4.0,94,0.00,,,0.00,0.000000,,2014-01-19 09:11:00,
2014-01-19 02:21:00,22.0,21.0,-100.00,North,-999,0.0,4.0,94,0.00,,,0.00,0.000000,,2014-01-19 09:21:00,
2014-01-19 02:54:00,21.0,20.0,-100.00,North,-999,0.0,3.0,96,0.00,,,0.00,0.000000,,2014-01-19 09:54:00,
2014-01-19 03:03:00,21.0,20.0,-100.00,North,-999,0.0,3.0,96,0.00,,,0.00,0.000000,,2014-01-19 10:03:00,
2014-01-19 03:12:00,21.0,20.0,-100.00,North,-999,0.0,3.0,96,0.00,,,0.00,0.000000,,2014-01-19 10:12:00,
2014-01-19 03:23:00,21.0,20.0,-100.00,North,-999,0.0,3.0,96,0.00,,,0.00,0.000000,,2014-01-19 10:23:00,
2014-01-19 03:52:00,21.0,20.0,-100.00,North,-999,0.0,0.0,96,0.00,,,0.00,0.000000,,2014-01-19 10:52:00,
2014-01-19 04:02:00,21.0,20.0,-100.00,North,-999,0.0,0.0,96,0.00,,,0.00,0.000000,,2014-01-19 11:02:00,
2014-01-19 04:12:00,21.0,20.0,-100.00,North,-999,0.0,0.0,96,0.00,,,0.00,0.000000,,2014-01-19 11:12:00,
2014-01-19 04:22:00,21.0,20.0,-100.00,North,-999,0.0,0.0,96,0.00,,,0.00,0.000000,,2014-01-19 11:22:00,
2014-01-19 04:53:00,21.0,20.0,-100.00,North,-999,0.0,3.0,97,0.00,,,-99.99,0.000000,,2014-01-19 11:53:00,
2014-01-19 05:02:00,21.0,20.0,-100.00,North,-999,0.0,3.0,97,0.00,,,-99.99,0.000000,,2014-01-19 12:02:00,
2014-01-19 05:11:00,21.0,20.0,-100.00,North,-999,0.0,3.0,97,0.00,,,-99.99,0.000000,,2014-01-19 12:11:00,
2014-01-19 05:21:00,21.0,20.0,-100.00,North,-999,0.0,3.0,97,0.00,,,-99.99,0.000000,,2014-01-19 12:21:00,
2014-01-19 05:52:00,20.0,19.0,-100.00,North,-999,0.0,2.0,95,0.00,,,0.00,0.000000,,2014-01-19 12:52:00,
2014-01-19 06:02:00,20.0,19.0,-100.00,North,-999,0.0,2.0,95,0.00,,,0.00,0.000000,,2014-01-19 13:02:00,
2014-01-19 06:11:00,20.0,19.0,-100.00,North,-999,0.0,2.0,95,0.00,,,0.00,0.000000,,2014-01-19 13:11:00,
2014-01-19 06:21:00,20.0,19.0,-100.00,North,-999,0.0,2.0,95,0.00,,,0.00,0.000000,,2014-01-19 13:21:00,
2014-01-19 06:52:00,20.0,19.0,-100.00,North,-999,0.0,3.0,97,0.00,,,0.00,0.000000,,2014-01-19 13:52:00,
2014-01-19 07:02:00,20.0,19.0,-100.00,North,-999,0.0,3.0,97,0.00,,,0.00,0.000000,,2014-01-19 14:02:00,
2014-01-19 07:11:00,20.0,19.0,-100.00,North,-999,0.0,3.0,97,0.00,,,0.00,0.000000,,2014-01-19 14:11:00,
2014-01-19 07:21:00,20.0,19.0,-100.00,North,-999,0.0,3.0,97,0.00,,,0.00,0.000000,,2014-01-19 14:21:00,
2014-01-19 07:52:00,19.0,18.0,-100.00,North,-999,0.0,3.0,94,0.00,,,-99.99,0.000000,,2014-01-19 14:52:00,
2014-01-19 08:02:00,19.0,18.0,-100.00,North,-999,0.0,3.0,94,0.00,,,-99.99,0.000000,,2014-01-19 15:02:00,
2014-01-19 08:11:00,19.0,18.0,-100.00,North,-999,0.0,3.0,94,0.00,,,-99.99,0.000000,,2014-01-19 15:11:00,
2014-01-19 08:21:00,19.0,18.0,-100.00,North,-999,0.0,3.0,94,0.00,,,-99.99,0.000000,,2014-01-19 15:21:00,
2014-01-19 08:54:00,20.0,19.0,-100.00,North,-999,0.0,3.0,97,0.00,,,-99.99,0.000000,,2014-01-19 15:54:00,
2014-01-19 09:03:00,20.0,19.0,-100.00,North,-999,0.0,3.0,97,0.00,,,-99.99,0.000000,,2014-01-19 16:03:00,
2014-01-19 09:12:00,20.0,19.0,-100.00,North,-999,0.0,3.0,97,0.00,,,-99.99,0.000000,,2014-01-19 16:12:00,
2014-01-19 09:23:00,20.0,19.0,-100.00,North,-999,0.0,3.0,97,0.00,,,-99.99,0.000000,,2014-01-19 16:23:00,
2014-01-19 09:53:00,22.0,21.0,-100.00,North,-999,0.0,3.0,94,0.00,,,0.00,44.000000,,2014-01-19 16:53:00,
2014-01-19 10:02:00,22.0,21.0,-100.00,North,-999,0.0,3.0,94,0.00,,,0.00,44.000000,,2014-01-19 17:02:00,
2014-01-19 10:12:00,22.0,21.0,-100.00,North,-999,0.0,3.0,94,0.00,,,0.00,44.000000,,2014-01-19 17:12:00,
2014-01-19 10:22:00,22.0,21.0,-100.00,North,-999,0.0,3.0,94,0.00,,,0.00,44.000000,,2014-01-19 17:22:00,
2014-01-19 10:53:00,27.0,24.0,-100.00,North,-999,0.0,0.0,90,0.00,,,0.00,162.000000,,2014-01-19 17:53:00,
2014-01-19 11:02:00,27.0,24.0,-100.00,North,-999,0.0,0.0,90,0.00,,,0.00,162.000000,,2014-01-19 18:02:00,
2014-01-19 11:12:00,27.0,24.0,-100.00,North,-999,0.0,0.0,90,0.00,,,0.00,162.000000,,2014-01-19 18:12:00,
2014-01-19 11:21:00,27.0,24.0,-100.00,North,-999,0.0,0.0,90,0.00,,,0.00,162.000000,,2014-01-19 18:21:00,
2014-01-19 12:11:00,32.0,27.0,-100.00,North,-999,0.0,4.0,80,0.00,,,0.00,285.000000,,2014-01-19 19:11:00,
2014-01-19 12:21:00,32.0,27.0,-100.00,North,-999,0.0,4.0,80,0.00,,,0.00,285.000000,,2014-01-19 19:21:00,
2014-01-19 12:52:00,36.0,25.0,-100.00,North,-999,0.0,4.0,63,0.00,,,-99.99,447.000000,,2014-01-19 19:52:00,
2014-01-19 13:02:00,36.0,25.0,-100.00,North,-999,0.0,4.0,63,0.00,,,-99.99,447.000000,,2014-01-19 20:02:00,
2014-01-19 13:11:00,36.0,25.0,-100.00,North,-999,0.0,4.0,63,0.00,,,-99.99,447.000000,,2014-01-19 20:11:00,
2014-01-19 13:21:00,36.0,25.0,-100.00,North,-999,0.0,4.0,63,0.00,,,-99.99,447.000000,,2014-01-19 20:21:00,
2014-01-19 13:52:00,39.0,27.0,-100.00,WSW,251,1.0,5.0,63,0.00,,,0.00,482.000000,,2014-01-19 20:52:00,
2014-01-19 14:02:00,39.0,27.0,-100.00,WSW,251,1.0,5.0,63,0.00,,,0.00,482.000000,,2014-01-19 21:02:00,
2014-01-19 14:11:00,39.0,27.0,-100.00,WSW,251,1.0,5.0,63,0.00,,,0.00,482.000000,,2014-01-19 21:11:00,
2014-01-19 14:22:00,39.0,27.0,-100.00,WSW,251,1.0,5.0,63,0.00,,,0.00,482.000000,,2014-01-19 21:22:00,
2014-01-19 14:53:00,42.0,27.0,-100.00,North,-999,0.0,6.0,56,0.00,,,0.00,486.000000,,2014-01-19 21:53:00,
2014-01-19 15:03:00,42.0,27.0,-100.00,North,-999,0.0,6.0,56,0.00,,,0.00,486.000000,,2014-01-19 22:03:00,
2014-01-19 15:12:00,42.0,27.0,-100.00,North,-999,0.0,6.0,56,0.00,,,0.00,486.000000,,2014-01-19 22:12:00,
2014-01-19 15:22:00,42.0,27.0,-100.00,North,-999,0.0,6.0,56,0.00,,,0.00,486.000000,,2014-01-19 22:22:00,
2014-01-19 15:52:00,40.0,28.0,-100.00,WSW,253,1.0,7.0,61,0.00,,,0.00,230.000000,,2014-01-19 22:52:00,
2014-01-19 16:02:00,40.0,28.0,-100.00,WSW,253,1.0,7.0,61,0.00,,,0.00,230.000000,,2014-01-19 23:02:00,
2014-01-19 16:12:00,40.0,28.0,-100.00,WSW,253,1.0,7.0,61,0.00,,,0.00,230.000000,,2014-01-19 23:12:00,
2014-01-19 16:21:00,40.0,28.0,-100.00,WSW,253,1.0,7.0,61,0.00,,,0.00,230.000000,,2014-01-19 23:21:00,
2014-01-19 16:52:00,37.0,28.0,-100.00,North,-999,0.0,4.0,71,0.00,,,0.00,56.000000,,2014-01-19 23:52:00,
2014-01-19 17:02:00,37.0,28.0,-100.00,North,-999,0.0,4.0,71,0.00,,,0.00,56.000000,,2014-01-20 00:02:00,
2014-01-19 17:12:00,37.0,28.0,-100.00,North,-999,0.0,4.0,71,0.00,,,0.00,56.000000,,2014-01-20 00:12:00,
2014-01-19 17:21:00,37.0,28.0,-100.00,North,-999,0.0,4.0,71,0.00,,,0.00,56.000000,,2014-01-20 00:21:00,
2014-01-19 17:52:00,34.0,28.0,-100.00,North,-999,0.0,5.0,78,0.00,,,0.00,13.000000,,2014-01-20 00:52:00,
2014-01-19 18:01:00,34.0,28.0,-100.00,North,-999,0.0,5.0,78,0.00,,,0.00,13.000000,,2014-01-20 01:01:00,
2014-01-19 18:11:00,34.0,28.0,-100.00,North,-999,0.0,5.0,78,0.00,,,0.00,13.000000,,2014-01-20 01:11:00,
2014-01-19 18:21:00,34.0,28.0,-100.00,North,-999,0.0,5.0,78,0.00,,,0.00,13.000000,,2014-01-20 01:21:00,
2014-01-19 18:52:00,34.0,28.0,-100.00,North,-999,0.0,4.0,79,0.00,,,0.00,0.000000,,2014-01-20 01:52:00,
2014-01-19 19:01:00,34.0,28.0,-100.00,North,-999,0.0,4.0,79,0.00,,,0.00,0.000000,,2014-01-20 02:01:00,
2014-01-19 19:11:00,34.0,28.0,-100.00,North,-999,0.0,4.0,79,0.00,,,0.00,0.000000,,2014-01-20 02:11:00,
2014-01-19 19:21:00,34.0,28.0,-100.00,North,-999,0.0,4.0,79,0.00,,,0.00,0.000000,,2014-01-20 02:21:00,
2014-01-19 19:52:00,33.0,28.0,-100.00,North,-999,0.0,5.0,80,0.00,,,0.00,0.000000,,2014-01-20 02:52:00,
2014-01-19 20:01:00,33.0,28.0,-100.00,North,-999,0.0,5.0,80,0.00,,,0.00,0.000000,,2014-01-20 03:01:00,
2014-01-19 20:11:00,33.0,28.0,-100.00,North,-999,0.0,5.0,80,0.00,,,0.00,0.000000,,2014-01-20 03:11:00,
2014-01-19 20:21:00,33.0,28.0,-100.00,North,-999,0.0,5.0,80,0.00,,,0.00,0.000000,,2014-01-20 03:21:00,
2014-01-19 20:53:00,34.0,28.0,-100.00,North,-999,0.0,5.0,80,0.00,,,0.00,0.000000,,2014-01-20 03:53:00,
2014-01-19 21:03:00,34.0,28.0,-100.00,North,-999,0.0,5.0,80,0.00,,,0.00,0.000000,,2014-01-20 04:03:00,
2014-01-19 21:12:00,34.0,28.0,-100.00,North,-999,0.0,5.0,80,0.00,,,0.00,0.000000,,2014-01-20 04:12:00,
2014-01-19 21:23:00,34.0,28.0,-100.00,North,-999,0.0,5.0,80,0.00,,,0.00,0.000000,,2014-01-20 04:23:00,
2014-01-19 21:53:00,32.0,28.0,-100.00,North,-999,0.0,4.0,84,0.00,,,0.00,0.000000,,2014-01-20 04:53:00,
2014-01-19 22:02:00,32.0,28.0,-100.00,North,-999,0.0,4.0,84,0.00,,,0.00,0.000000,,2014-01-20 05:02:00,
2014-01-19 22:12:00,32.0,28.0,-100.00,North,-999,0.0,4.0,84,0.00,,,0.00,0.000000,,2014-01-20 05:12:00,
2014-01-19 22:22:00,32.0,28.0,-100.00,North,-999,0.0,4.0,84,0.00,,,0.00,0.000000,,2014-01-20 05:22:00,
2014-01-19 22:52:00,32.0,26.0,-100.00,North,-999,0.0,6.0,77,0.00,,,0.00,0.000000,,2014-01-20 05:52:00,
2014-01-19 23:02:00,32.0,26.0,-100.00,North,-999,0.0,6.0,77,0.00,,,0.00,0.000000,,2014-01-20 06:02:00,
2014-01-19 23:12:00,32.0,26.0,-100.00,North,-999,0.0,6.0,77,0.00,,,0.00,0.000000,,2014-01-20 06:12:00,
2014-01-19 23:21:00,32.0,26.0,-100.00,North,-999,0.0,6.0,77,0.00,,,0.00,0.000000,,2014-01-20 06:21:00,
2014-01-19 23:52:00,33.0,27.0,-100.00,North,-999,0.0,6.0,78,0.00,,,-99.99,0.000000,,2014-01-20 06:52:00,